Powrót do katalogu

FENGYUN 1C DEB

AktywnySSO
NORAD 29854·DEBRIS·🇨🇳 China

Wystrzelony May 10, 1999 z Taiyuan Satellite Launch Center

Loading…

Następne Przeloty (najbliższe 24 godziny)

TLE

ŚwieżeSource: Space-Track

Epoka: Sep 13, 2026, 23:22 UTC

1 29854U 99025EY  26256.97373825  .00000154  00000-0  16317-3 0  9999
2 29854  98.9643  49.7591 0146597  29.9100  92.8687 13.83549239991496

Śledź FENGYUN 1C DEB w czasie rzeczywistym z AllMySat

Download on the App Store